Probability
0 0 0 0 0 0 0 0 0 0 0 0 0 0 0 0 0 0 0 0 0 0 0 0 0 0 0 0 0 0 0 0 0 0 0 0 0 0 0 0 0 0 0
0 0 0 0 0 0 0 0 0 0 0 0 0 0 0 0 0 0 0 0 0 0 0 0 0 0 0 0 0 0 0 0 0 0 0 0 0 0 0 0 0 0 0
0 0 0 0 0 0 0 0 0 0 0 0 0 0 0 0 0 0 0 0 0 0 0 0 0 0 0 0 0 0 0 0 0 0 0 0 0 0 0 0 0 0 0
0 0 0 0 0 0 0 0 0 0 0 0 0 0 0 0 0 0 0 0 0 0 0 0 0 0 0 0 0 0 0 0 0 0 0 0 0 0 0 0 0 0 0
0 0 0 0 0 0 0 0 0 0 0 0 0 0 0 0 0 0 0 0 0 0 0 0 0 0 0 0 0 0 0 0 0 0 0 0 0 0 0 0 0 0 0
0 0 0 0 0 0 0 0 0 0 0 0 0 0 0 0 0 0 0 0 0 0 0 0 0 0 0 0 0 0 0 0 0 0 0 0 0 0 0 0 0 0 0
0 0 0 0 0 0 0 0 0 0 0 0 0 0 0 0 0 0 0 0 0 0 0 0 0 0 0 0 0 0 0 0 0 0 0 0 0 0 0 0 0 0 0
0 0 0 0 0 0 0 0 0 0 0 0 0 0 0 0 0 0 0 0 0 0 0 0 0 0 0 0 0 0 0 0 0 0 0 0 0 0 0 0 0 0 0
0 0 0 0 0 0 0 0 0 0 0 0 0 0 0 0 0 0 0 0 0 0 0 0 0 0 0 0 0 0 0 0 0 0 0 0 0 0 0 0 0 0 0
0 0 0 0 0 0 0 0 0 0 0 0 0 0 0 0 0 0 0 0 0 0 0 0 0 0 0 0 0 0 0 0 0 0 0 0 0 0 0 0 0 0 0
0 0 1 1 0 0 0 0 0 0 0 0 0 0 0 0 0 0 0 0 0 0 0 0 0 0 0 0 0 0 0 0 0 0 0 0 0 0 0 0 0 0 0
0 1 2 2 1 1 0 0 0 0 0 0 0 0 0 0 0 0 0 0 0 0 0 0 0 0 0 0 0 0 0 0 0 0 0 0 0 0 0 0 0 0 0
1 2 3 3 3 2 1 1 1 0 0 0 0 0 0 0 0 0 0 0 0 0 0 0 0 0 0 0 0 0 0 0 0 0 0 0 0 0 0 0 0 0 0
0 1 2 3 3 3 3 2 2 1 0 0 0 0 0 0 0 0 0 0 0 0 0 0 0 0 0 0 0 0 0 0 0 0 0 0 0 0 0 0 0 0 0
0 0 1 2 3 3 3 3 3 3 1 0 0 0 0 0 0 0 0 0 0 0 0 0 0 0 0 0 0 0 0 0 0 0 0 0 0 0 0 0 0 0 0
0 0 0 1 1 2 3 3 4 4 3 2 0 0 0 0 0 0 0 0 0 0 0 0 0 0 0 0 0 0 0 0 0 0 0 0 0 0 0 0 0 0 0
0 0 0 0 0 1 2 3 3 4 4 4 2 1 0 0 0 0 0 0 0 0 0 0 0 0 0 0 0 0 0 0 0 0 0 0 0 0 0 0 0 0 0
0 0 0 0 0 0 1 2 3 3 4 4 4 3 1 0 0 0 0 0 1 1 1 0 0 0 0 0 0 0 0 0 0 0 0 0 0 0 0 0 0 0 0
0 0 0 0 0 0 0 1 2 3 3 3 4 5 3 1 0 0 0 0 1 2 2 1 1 0 0 0 0 0 0 0 0 0 0 0 0 0 0 0 0 0 0
0 0 0 0 0 0 0 0 1 2 3 3 4 5 4 3 1 0 0 0 1 2 3 3 2 1 0 0 0 0 0 0 0 0 0 0 0 0 0 0 0 0 0
0 0 0 0 0 0 0 0 0 1 2 3 3 4 4 3 1 0 0 0 1 2 3 3 3 2 1 0 0 0 0 0 0 0 0 0 0 0 0 0 0 0 0
0 0 0 0 0 0 0 0 0 0 1 3 3 3 3 1 1 0 0 0 0 1 1 2 2 2 1 0 0 0 0 0 0 0 0 0 0 0 0 0 0 0 0
0 0 0 0 0 0 0 0 0 0 1 2 2 2 2 1 0 0 0 0 0 0 0 1 1 1 0 0 0 0 0 0 0 0 0 0 0 0 0 0 0 0 0
0 0 0 0 0 0 0 0 0 0 0 1 1 1 1 0 0 0 0 0 0 0 0 0 0 0 0 0 0 0 0 0 0 0 0 0 0 0 0 0 0 0 0
0 0 0 0 0 0 0 0 0 0 0 0 0 0 0 0 0 0 0 0 0 0 0 0 0 0 0 0 0 0 0 0 0 0 0 0 0 0 0 0 0 0 0
0 0 0 0 0 0 0 0 0 0 0 0 0 0 0 0 0 0 0 0 0 0 0 0 0 0 0 0 0 0 0 0 0 0 0 0 0 0 0 0 0 0 0
Wind_Speed
5 4 3 3 3 3 3 3 3 3 3 3 3 3 4 4 4 4 3 7 9 10 11 11 10 10 9 9 9 9 9 9 9 9 8 8 7 7 7 6 6 6 6
5 5 4 4 4 4 4 4 4 4 3 3 4 4 5 5 5 5 4 5 9 11 13 13 13 12 12 12 11 12 12 11 11 11 11 10 10 10 9 9 9 8 8
7 6 5 5 5 4 5 4 4 3 3 4 5 5 5 5 5 6 6 5 5 9 13 15 15 14 14 14 14 13 13 14 13 13 13 12 12 12 12 12 11 11 11
8 7 6 6 5 5 4 4 4 4 4 4 5 4 4 5 6 7 6 6 5 5 9 15 16 16 16 16 16 16 15 15 15 15 14 14 14 14 14 14 14 13 13
10 8 7 6 6 5 6 5 5 4 5 5 5 5 5 6 6 7 8 8 8 7 6 10 14 15 17 18 18 18 18 17 16 15 15 16 16 16 16 16 16 16 15
11 10 7 7 7 6 6 6 7 6 5 4 5 6 6 7 7 8 9 8 8 9 8 8 7 9 16 19 20 20 20 19 19 18 17 17 17 17 17 17 18 18 17
11 10 8 8 8 8 8 8 7 7 6 3 3 5 6 8 10 9 8 8 9 9 8 9 7 6 7 16 20 21 22 21 20 19 19 18 18 19 19 19 19 19 19
11 10 11 9 9 8 9 9 8 6 5 5 4 3 5 4 5 7 7 8 9 6 8 9 8 9 7 6 11 20 22 22 22 21 20 20 20 20 20 20 20 20 19
11 11 11 10 9 9 9 10 10 10 8 6 7 6 5 5 4 3 5 6 6 6 7 7 9 10 9 8 8 15 20 22 22 22 22 20 20 21 21 21 20 20 20
11 11 11 11 10 9 10 10 10 9 9 8 6 8 8 4 4 5 3 3 5 7 8 7 8 9 9 9 10 15 17 20 20 21 21 21 21 21 21 21 21 20 20
10 11 11 11 11 10 10 10 10 10 9 10 8 5 8 8 8 8 9 5 4 5 6 7 7 7 8 9 9 13 18 20 20 20 20 20 21 21 21 21 20 20 20
7 10 11 11 11 10 11 11 10 11 11 11 10 8 7 7 7 9 11 9 8 5 6 7 7 8 8 9 12 16 18 19 20 20 20 20 20 20 21 21 21 21 21
7 9 10 10 11 11 11 10 10 11 12 12 12 10 10 10 7 7 10 10 9 6 5 6 8 8 8 8 9 16 17 19 20 20 19 19 20 20 20 21 21 20 20
7 6 8 9 10 10 10 10 10 11 10 12 13 12 10 10 9 10 9 9 11 9 7 8 5 8 8 8 11 15 11 17 19 20 19 19 19 19 19 20 20 20 19
4 4 6 7 8 9 10 9 9 10 10 11 12 12 11 9 9 9 9 9 11 13 12 7 6 6 8 8 11 9 10 14 18 19 19 19 19 19 19 19 19 19 19
3 4 5 6 7 8 9 9 9 9 10 10 9 11 12 9 9 9 9 9 10 12 14 6 6 6 7 7 10 10 11 14 16 17 17 17 17 18 18 18 19 19 19
4 5 5 6 7 8 8 9 10 9 11 11 10 11 12 10 9 8 8 9 10 10 15 11 6 6 7 8 7 8 8 9 9 15 16 17 16 17 17 17 18 18 18
4 5 5 5 6 7 7 8 10 10 10 11 11 11 12 9 11 9 9 10 10 10 12 15 9 6 9 8 8 8 7 7 8 12 15 16 16 16 16 17 17 16 16
3 3 4 5 6 7 7 8 9 10 10 11 11 12 12 11 12 10 10 10 9 9 10 12 12 7 6 5 6 6 6 6 6 8 12 14 15 16 16 16 16 15 15
4 4 4 5 6 7 7 7 8 9 10 11 11 11 11 11 12 11 10 11 9 10 10 11 11 8 6 4 4 5 6 6 7 6 9 9 11 13 15 15 14 14 14
4 4 5 5 5 5 5 6 7 9 10 10 10 11 11 12 14 12 10 9 9 10 9 9 10 8 7 4 6 5 7 6 6 5 5 6 6 7 8 11 13 13 14
4 4 5 5 6 5 7 9 8 8 9 10 10 10 10 11 12 14 15 15 14 13 12 11 10 11 10 9 7 6 6 5 7 5 6 6 5 7 7 6 11 14 15
5 5 5 6 7 8 9 10 10 9 9 9 9 9 8 7 9 10 12 14 15 17 18 14 14 13 11 9 8 8 8 8 9 5 5 6 5 7 6 7 12 14 14
5 5 5 6 7 8 10 11 11 8 9 9 8 8 9 9 8 9 10 11 12 12 13 13 14 13 11 9 9 10 10 8 5 3 5 6 5 5 4 5 11 14 14
5 5 5 6 7 8 11 12 11 7 7 8 8 8 8 9 10 10 10 11 11 10 9 12 13 13 13 12 9 5 5 5 6 5 5 5 4 3 3 4 7 12 13
5 6 6 6 7 8 11 12 11 6 7 7 7 6 8 10 11 10 9 9 11 10 7 7 8 10 10 9 9 8 7 6 5 5 6 6 4 4 3 2 3 4 6
Wind_Direction
190 191 195 194 196 192 195 202 214 228 242 249 247 244 248 246 246 243 253 258 260 260 259 261 259 256 250 245 243 240 238 235 229 228 228 227 227 227 226 223 220 216 213
195 194 200 202 205 203 202 204 213 224 236 243 253 250 249 248 246 244 242 253 255 256 257 259 261 262 259 254 249 244 242 241 232 228 229 229 229 231 230 228 227 225 222
200 200 203 208 210 205 206 210 221 226 240 245 253 254 252 249 247 245 243 240 247 252 252 254 258 261 262 260 256 252 248 245 237 232 230 230 230 231 231 231 230 229 227
204 203 208 213 207 200 203 211 215 226 238 242 250 254 251 251 249 246 243 239 237 241 247 250 253 257 259 261 260 258 256 251 243 238 234 233 232 232 232 232 231 232 230
207 207 213 213 201 204 210 215 216 214 232 240 247 253 250 249 250 248 246 242 238 236 236 247 246 249 254 258 259 260 258 255 249 244 240 236 235 235 235 234 232 231 231
207 209 215 211 201 209 216 216 221 217 225 234 251 260 255 249 246 245 245 244 239 235 233 234 238 244 247 253 256 259 259 258 252 246 243 241 238 237 236 236 235 233 232
207 209 214 210 207 215 219 215 217 224 229 205 243 272 263 245 245 244 239 239 240 235 231 231 231 233 244 249 252 254 257 258 255 250 246 244 242 240 239 238 238 236 235
210 211 214 214 211 217 220 217 214 222 221 190 204 250 288 293 258 243 238 238 241 234 233 232 229 231 232 235 245 249 253 256 256 254 251 248 246 245 243 242 241 238 237
212 214 215 215 215 215 223 220 216 222 232 213 203 209 238 258 298 277 243 238 239 235 237 233 231 233 233 233 239 247 248 251 253 255 255 253 250 248 247 246 245 241 239
214 216 218 217 219 220 225 223 218 221 226 232 214 218 228 220 250 293 276 247 238 235 236 234 234 234 231 232 235 235 238 242 246 250 253 254 254 252 249 248 247 245 243
215 217 218 220 223 224 226 225 221 221 223 231 225 212 226 233 231 253 275 272 255 236 233 232 233 234 231 230 234 236 235 238 240 242 245 248 250 252 252 250 249 247 247
218 219 220 222 225 226 227 227 226 225 228 230 231 223 215 221 224 234 255 266 268 253 230 228 229 232 232 230 233 235 235 238 239 239 240 242 244 247 249 249 250 250 250
224 224 220 225 228 230 231 227 227 229 229 230 233 233 230 233 228 231 249 263 267 266 245 232 225 228 230 229 234 233 235 237 239 240 239 238 240 242 244 246 248 250 252
231 229 222 227 231 233 234 231 231 232 231 232 235 235 237 236 232 230 238 254 269 269 248 244 225 222 227 226 233 230 235 234 236 238 238 237 238 239 241 243 245 248 249
243 237 232 233 235 236 236 236 237 237 235 235 237 236 238 239 236 235 235 236 253 272 272 245 232 222 223 225 230 229 231 233 232 233 235 236 236 237 238 240 242 244 246
250 248 243 242 242 241 240 239 242 242 240 240 238 238 239 240 238 234 234 235 237 252 269 257 232 225 217 224 227 227 230 231 231 233 234 235 235 234 235 236 238 240 241
255 253 253 250 248 247 244 243 245 244 244 246 244 244 246 244 244 241 237 237 239 242 260 268 244 230 221 227 230 228 230 231 231 228 231 233 232 232 232 233 234 235 237
266 264 264 262 259 256 252 248 250 248 247 248 248 246 248 246 245 245 242 242 243 240 252 266 264 240 232 229 230 227 227 228 231 228 225 228 229 230 230 230 229 230 231
299 296 285 274 271 266 261 256 254 253 251 251 250 249 250 246 248 246 244 246 245 245 245 258 265 254 245 231 232 235 232 232 230 228 223 227 229 230 229 228 227 226 225
307 302 295 287 282 277 271 267 264 262 259 257 254 252 251 248 249 250 249 248 249 249 247 252 259 258 250 237 223 234 245 234 236 226 228 226 226 227 228 227 225 222 220
317 309 303 298 294 286 285 288 280 273 268 266 261 256 253 251 250 250 251 251 249 251 250 252 256 257 249 232 231 224 240 245 242 218 225 226 223 225 224 225 223 218 217
320 315 308 302 298 294 300 297 292 284 276 271 271 268 263 252 253 250 249 249 246 248 251 251 253 252 252 241 236 227 234 240 252 211 211 233 212 226 224 217 217 213 214
325 318 311 306 297 294 303 300 292 283 279 275 273 275 274 269 260 258 255 252 249 247 245 249 256 254 253 243 234 234 230 231 242 210 194 238 216 230 224 218 212 210 210
324 317 315 311 306 306 316 317 309 284 278 279 278 278 279 279 271 268 267 263 258 253 248 247 254 259 258 251 235 236 236 236 247 229 191 230 219 226 221 214 211 209 208
328 322 319 319 316 315 322 321 320 300 288 286 283 280 278 280 281 277 272 272 273 271 264 252 255 258 258 253 243 235 228 224 243 235 202 214 219 216 216 218 213 206 204
324 322 318 318 314 312 320 323 323 309 303 302 299 291 283 285 291 286 276 276 277 279 282 285 274 271 266 258 241 234 226 228 238 239 202 193 199 179 215 224 206 198 199